FW8528 Weather Reports


Display with metric or nautical units.
time (UTC)temp
F
wind
direction
speed
MPH
gust
MPH
rain 1hr
in
rain 24hr
in
rain mn
in
humidity
%
barometer
mb
20260508060107 49 272 0.0 0.0 0.00 0.00 0.00 99 1016.6
20260508055602 49 272 0.0 0.0 0.00 0.00 0.00 99 1016.2
20260508055059 49 272 0.0 0.0 0.00 0.00 0.00 99 1016.2
20260508054556 49 272 0.0 0.0 0.00 0.00 0.00 99 1016.2
20260508054053 49 272 0.0 0.0 0.00 0.00 0.00 99 1016.6
20260508053549 50 272 0.0 0.0 0.00 0.00 0.00 99 1016.6
20260508053048 49 272 0.0 0.0 0.00 0.00 0.00 99 1016.6
20260508052545 50 272 0.0 0.0 0.00 0.00 0.00 99 1016.2
20260508052041 50 272 0.0 0.0 0.00 0.00 0.00 99 1016.9
20260508051538 50 272 0.0 0.0 0.00 0.00 0.00 99 1016.6
20260508051033 50 272 0.0 0.0 0.00 0.00 0.00 98 1016.6
20260508050530 50 272 0.0 0.0 0.00 0.00 0.00 98 1016.6
20260508050027 50 272 0.0 0.0 0.00 0.00 0.00 99 1016.6
20260508045523 50 272 0.0 0.0 0.00 0.00 0.00 98 1016.9
20260508045021 50 272 0.0 0.0 0.00 0.00 0.00 98 1016.9
20260508044518 50 272 0.0 0.0 0.00 0.00 0.00 98 1016.6
20260508044014 51 272 0.0 0.0 0.00 0.00 0.00 97 1016.9
20260508043511 51 272 0.0 0.0 0.00 0.00 0.00 97 1016.9
20260508043008 51 272 0.0 0.0 0.00 0.00 0.00 96 1016.9
20260508042505 51 272 0.0 0.0 0.00 0.00 0.00 96 1016.6
20260508042002 51 272 0.0 0.0 0.00 0.00 0.00 96 1016.9
20260508041458 51 272 0.0 0.0 0.00 0.00 0.00 96 1016.6
20260508040955 52 272 0.0 0.0 0.00 0.00 0.00 96 1016.9
20260508040452 52 272 0.0 0.0 0.00 0.00 0.00 96 1016.9
20260508035950 52 272 0.0 0.0 0.00 0.00 0.00 96 1016.9
20260508035446 52 272 0.0 0.0 0.00 0.00 0.00 96 1016.6
20260508034943 52 272 0.0 0.0 0.00 0.00 0.00 94 1016.6
20260508034441 53 272 0.0 0.0 0.00 0.00 0.00 93 1016.6
20260508033937 53 273 0.0 0.0 0.00 0.00 0.00 92 1016.6
20260508033436 53 273 0.0 0.0 0.00 0.00 0.00 93 1016.6
20260508032932 53 271 0.0 0.0 0.00 0.00 0.00 93 1016.2
20260508032430 54 271 0.0 0.0 0.00 0.00 0.00 91 1016.2
20260508031926 54 271 0.0 0.0 0.00 0.00 0.00 90 1015.8
20260508031424 55 271 0.0 0.0 0.00 0.00 0.00 90 1016.6
20260508030919 55 271 0.0 0.0 0.00 0.00 0.00 90 1016.6
20260508030417 56 271 0.0 0.0 0.00 0.00 0.00 87 1016.2
20260508025914 56 271 0.0 0.0 0.00 0.00 0.00 87 1016.6
20260508025410 57 271 0.0 0.0 0.00 0.00 0.00 86 1015.8
20260508024907 57 271 0.0 0.0 0.00 0.00 0.00 85 1016.2
20260508024404 57 271 0.0 0.0 0.00 0.00 0.00 84 1016.2
20260508023901 58 272 0.0 0.0 0.00 0.00 0.00 85 1016.6
20260508023357 58 272 0.0 0.0 0.00 0.00 0.00 84 1016.2
20260508022854 58 271 0.0 0.0 0.00 0.00 0.00 84 1016.2
20260508022350 59 271 0.0 0.0 0.00 0.00 0.00 83 1016.6
20260508021847 59 271 0.0 0.0 0.00 0.00 0.00 82 1016.2
20260508021343 59 272 0.0 0.0 0.00 0.00 0.00 81 1015.8
20260508020839 59 272 0.0 0.0 0.00 0.00 0.00 80 1016.6
20260508020337 59 272 0.0 0.0 0.00 0.00 0.00 80 1016.2
20260508015834 60 272 0.0 0.0 0.00 0.00 0.00 80 1016.2
20260508015332 60 272 0.0 0.0 0.00 0.00 0.00 79 1016.6
20260508014828 60 275 1.0 1.0 0.00 0.00 0.00 76 1016.6
20260508014325 60 242 0.0 0.0 0.00 0.00 0.00 74 1016.6
20260508013820 61 253 0.0 0.0 0.00 0.00 0.00 74 1016.9
20260508013317 61 260 0.0 0.0 0.00 0.00 0.00 73 1016.6
20260508012814 62 240 0.0 0.0 0.00 0.00 0.00 73 1016.6
20260508012311 62 197 1.0 1.0 0.00 0.00 0.00 69 1016.6
20260508011809 63 217 1.0 1.0 0.00 0.00 0.00 72 1016.6
20260508011307 63 281 1.0 1.0 0.00 0.00 0.00 68 1016.6
20260508010803 63 210 1.0 1.0 0.00 0.00 0.00 67 1016.9
20260508010302 64 236 0.0 0.0 0.00 0.00 0.00 68 1016.9
20260508005758 64 278 0.0 0.0 0.00 0.00 0.00 67 1016.9
20260508005255 63 236 1.0 1.0 0.00 0.00 0.00 63 1016.9
20260508004750 63 265 0.0 0.0 0.00 0.00 0.00 68 1016.9
20260508004247 63 270 0.0 0.0 0.00 0.00 0.00 68 1016.9
20260508003743 62 272 0.0 0.0 0.00 0.00 0.00 65 1016.9
20260508003241 62 259 0.0 0.0 0.00 0.00 0.00 69 1016.9
20260508002737 62 214 2.0 2.0 0.00 0.00 0.00 65 1016.9
20260508002235 63 211 2.0 2.0 0.00 0.00 0.00 65 1016.9
20260508001731 62 223 0.0 0.0 0.00 0.00 0.00 72 1017.2
20260508001226 63 13 2.0 2.0 0.00 0.00 0.00 65 1016.9
20260508000723 62 149 0.0 1.0 0.00 0.00 0.00 70 1016.9
20260508000220 62 232 1.0 1.0 0.00 0.00 0.00 69 1017.6
20260507235716 62 30 1.0 1.0 0.00 0.00 0.00 67 1017.2
20260507235214 62 264 1.0 1.0 0.00 0.00 0.00 66 1017.2
20260507234711 63 259 1.0 2.0 0.00 0.00 0.00 65 1017.2
20260507234208 62 257 0.0 0.0 0.00 0.00 0.00 67 1017.2
20260507233704 62 140 2.0 2.0 0.00 0.00 0.00 66 1017.6
20260507233202 62 223 0.0 0.0 0.00 0.00 0.00 69 1017.2
20260507232659 62 328 1.0 1.0 0.00 0.00 0.00 65 1017.6
20260507232156 63 112 1.0 1.0 0.00 0.00 0.00 67 1017.6
20260507231652 62 201 1.0 2.0 0.00 0.00 0.00 66 1017.2
20260507231149 61 228 0.0 0.0 0.00 0.00 0.00 69 1017.6
20260507230646 61 274 2.0 2.0 0.00 0.00 0.00 69 1017.9
20260507230143 61 180 1.0 1.0 0.00 0.00 0.00 69 1017.6
20260507225643 63 167 2.0 2.0 0.00 0.00 0.00 66 1017.9
20260507225140 62 226 1.0 1.0 0.00 0.00 0.00 66 1017.9
20260507224635 62 201 0.0 0.0 0.00 0.00 0.00 71 1017.9
20260507224132 61 294 0.0 1.0 0.00 0.00 0.00 72 1017.9
20260507223628 60 156 2.0 2.0 0.00 0.00 0.00 69 1018.2
20260507223125 60 241 0.0 0.0 0.00 0.00 0.00 74 1018.2
20260507222622 60 198 1.0 1.0 0.00 0.00 0.00 74 1018.2
20260507222119 60 153 1.0 1.0 0.00 0.00 0.00 72 1018.6
20260507221614 60 38 0.0 1.0 0.00 0.00 0.00 73 1018.2
20260507221111 60 269 0.0 0.0 0.00 0.00 0.00 75 1018.2
20260507220609 60 226 1.0 1.0 0.00 0.00 0.00 71 1018.6
20260507220106 60 120 1.0 2.0 0.00 0.00 0.00 75 1018.6
20260507215602 59 203 1.0 1.0 0.00 0.00 0.00 74 1018.6
20260507215100 60 166 2.0 2.0 0.00 0.00 0.00 72 1018.2
20260507214557 60 250 1.0 1.0 0.00 0.00 0.00 71 1018.6
20260507214053 60 230 1.0 1.0 0.00 0.00 0.00 70 1018.6
20260507213549 60 311 2.0 3.0 0.00 0.00 0.00 69 1018.6
20260507213047 59 237 0.0 1.0 0.00 0.00 0.00 72 1018.9
20260507212543 59 209 1.0 1.0 0.00 0.00 0.00 72 1018.6
20260507212040 59 225 0.0 1.0 0.00 0.00 0.00 72 1018.6
20260507211536 59 192 2.0 2.0 0.00 0.00 0.00 73 1018.6
20260507211032 59 224 1.0 1.0 0.00 0.00 0.00 72 1018.9
20260507210530 58 246 0.0 0.0 0.00 0.00 0.00 72 1018.6
20260507210026 59 243 0.0 1.0 0.00 0.00 0.00 73 1018.9
20260507205523 59 142 0.0 1.0 0.00 0.00 0.00 76 1018.9
20260507205019 59 254 0.0 0.0 0.00 0.00 0.00 74 1019.3
20260507204516 59 223 1.0 1.0 0.00 0.00 0.00 73 1018.9
20260507204014 58 208 1.0 1.0 0.00 0.00 0.00 76 1019.3
20260507203511 59 277 1.0 2.0 0.00 0.00 0.00 73 1018.9
20260507203009 58 232 1.0 1.0 0.00 0.00 0.00 73 1019.3
20260507202504 58 283 1.0 1.0 0.00 0.00 0.00 73 1019.3
20260507202000 58 204 1.0 2.0 0.00 0.00 0.00 74 1019.3
20260507201456 59 116 1.0 1.0 0.00 0.00 0.00 73 1019.3
20260507200953 59 205 2.0 3.0 0.00 0.00 0.00 73 1019.3
20260507200448 59 282 1.0 1.0 0.00 0.00 0.00 72 1019.3
20260507195944 59 180 2.0 2.0 0.00 0.00 0.00 74 1019.3
20260507195442 60 195 6.0 7.0 0.00 0.00 0.00 70 1019.3
20260507194939 60 283 0.0 1.0 0.00 0.00 0.00 76 1019.3
20260507194435 59 113 1.0 2.0 0.00 0.00 0.00 73 1019.3
20260507193931 59 214 2.0 2.0 0.00 0.00 0.00 72 1019.3
20260507193429 59 87 1.0 1.0 0.00 0.00 0.00 73 1019.3
20260507192925 58 199 1.0 1.0 0.00 0.00 0.00 73 1019.6
20260507192421 58 356 1.0 1.0 0.00 0.00 0.00 75 1019.6
20260507191918 57 192 1.0 1.0 0.00 0.00 0.00 76 1019.3
20260507191415 57 214 1.0 1.0 0.00 0.00 0.00 76 1019.6
20260507190911 58 206 3.0 3.0 0.00 0.00 0.00 75 1019.3
20260507190409 57 234 0.0 1.0 0.00 0.00 0.00 80 1019.6
20260507185908 56 244 0.0 1.0 0.00 0.00 0.00 78 1019.3
20260507185404 57 268 0.0 0.0 0.00 0.00 0.00 79 1019.6
20260507184901 57 178 2.0 2.0 0.00 0.00 0.00 80 1019.3
20260507184400 57 307 0.0 1.0 0.00 0.00 0.00 82 1019.6
20260507183856 57 137 2.0 3.0 0.00 0.00 0.00 81 1019.6
20260507183353 57 198 2.0 5.0 0.00 0.00 0.00 82 1019.3
20260507182851 55 189 0.0 0.0 0.00 0.00 0.00 84 1019.9
20260507182346 55 134 1.0 2.0 0.00 0.00 0.00 85 1019.6
20260507181843 55 234 0.0 0.0 0.00 0.00 0.00 86 1019.6
20260507181338 56 248 0.0 0.0 0.00 0.00 0.00 86 1019.6
20260507180836 55 195 1.0 1.0 0.00 0.00 0.00 85 1019.6
20260507180333 55 244 0.0 0.0 0.00 0.00 0.00 85 1019.6
20260507175828 54 245 0.0 0.0 0.00 0.00 0.00 87 1019.9
20260507175325 54 262 0.0 0.0 0.00 0.00 0.00 91 1019.9
20260507174823 53 197 0.0 1.0 0.00 0.00 0.00 91 1019.6
20260507174320 53 286 2.0 2.0 0.00 0.00 0.00 90 1019.9
20260507173817 53 229 0.0 0.0 0.00 0.00 0.00 90 1019.6
20260507173315 53 281 1.0 1.0 0.00 0.00 0.00 91 1019.6
20260507172811 53 272 0.0 0.0 0.00 0.00 0.00 91 1019.9
20260507172308 52 308 1.0 1.0 0.00 0.00 0.00 92 1019.9
20260507171803 53 132 0.0 1.0 0.00 0.00 0.00 92 1019.6
20260507171301 53 203 1.0 1.0 0.00 0.00 0.00 92 1019.6
20260507170757 53 225 1.0 1.0 0.00 0.00 0.00 93 1019.9
20260507170254 52 217 0.0 1.0 0.00 0.00 0.00 92 1019.9
20260507165750 52 263 0.0 0.0 0.00 0.00 0.00 93 1019.9
20260507165246 52 175 2.0 2.0 0.00 0.00 0.00 93 1019.6
20260507164742 52 131 1.0 1.0 0.00 0.00 0.00 94 1019.6
20260507164239 52 224 1.0 1.0 0.00 0.00 0.00 93 1019.9
20260507163736 52 248 0.0 0.0 0.00 0.00 0.00 95 1019.9
20260507163234 51 232 0.0 0.0 0.00 0.00 0.00 96 1019.6
20260507162730 51 305 0.0 0.0 0.00 0.00 0.00 96 1019.9
20260507162226 51 287 0.0 0.0 0.00 0.00 0.00 97 1019.9
20260507161723 50 230 0.0 0.0 0.00 0.00 0.00 97 1019.9
20260507161220 51 213 0.0 0.0 0.00 0.00 0.00 98 1019.9
20260507160715 50 225 0.0 0.0 0.00 0.00 0.00 98 1019.6
20260507160212 50 139 1.0 1.0 0.00 0.00 0.00 99 1019.9
20260507155708 50 164 2.0 2.0 0.00 0.00 0.00 99 1019.9
20260507155204 50 175 1.0 2.0 0.00 0.00 0.00 99 1019.9
20260507154701 50 242 0.0 0.0 0.00 0.00 0.00 99 1019.9
20260507154159 50 232 0.0 1.0 0.00 0.00 0.00 99 1019.9
20260507153655 50 221 1.0 2.0 0.00 0.00 0.00 99 1019.9
20260507153151 50 211 0.0 1.0 0.00 0.00 0.00 99 1019.9
20260507152648 50 208 2.0 3.0 0.00 0.00 0.00 99 1019.9
20260507152144 50 213 2.0 2.0 0.00 0.00 0.00 99 1019.9
20260507151640 49 261 1.0 1.0 0.00 0.00 0.00 99 1020.4
20260507151137 49 201 1.0 1.0 0.00 0.00 0.00 99 1019.6
20260507150634 49 218 0.0 0.0 0.00 0.00 0.00 99 1020.4
20260507150131 49 208 1.0 1.0 0.00 0.00 0.00 99 1019.9
20260507145626 49 207 1.0 1.0 0.00 0.00 0.00 99 1019.9
20260507145124 49 242 0.0 0.0 0.00 0.00 0.00 99 1019.6
20260507144620 49 212 1.0 1.0 0.00 0.00 0.00 99 1019.9
20260507144119 49 238 0.0 1.0 0.00 0.00 0.00 99 1019.6
20260507143614 49 271 0.0 0.0 0.00 0.00 0.00 99 1019.9
20260507143112 49 200 0.0 1.0 0.00 0.00 0.00 99 1019.9
20260507142607 49 216 0.0 0.0 0.00 0.00 0.00 99 1019.6
20260507142104 48 257 0.0 0.0 0.00 0.00 0.00 99 1019.9
20260507141600 48 235 0.0 0.0 0.00 0.00 0.00 99 1019.9
20260507141057 48 161 2.0 2.0 0.00 0.00 0.00 99 1019.9
20260507140554 48 238 0.0 0.0 0.00 0.00 0.00 99 1019.9
20260507140051 48 148 1.0 2.0 0.00 0.00 0.00 99 1019.6
20260507135548 48 224 0.0 0.0 0.00 0.00 0.00 99 1019.6
20260507135045 48 239 0.0 0.0 0.00 0.00 0.00 99 1019.6
20260507134542 48 237 0.0 0.0 0.00 0.00 0.00 99 1019.6
20260507134037 48 196 1.0 1.0 0.00 0.00 0.00 99 1019.6
20260507133534 48 227 0.0 1.0 0.00 0.00 0.00 99 1019.6
20260507133032 48 242 0.0 0.0 0.00 0.00 0.00 99 1019.6
20260507132528 48 227 0.0 0.0 0.00 0.00 0.00 99 1019.6
20260507132025 48 190 1.0 1.0 0.00 0.00 0.00 99 1019.6
20260507131522 48 227 0.0 0.0 0.00 0.00 0.00 99 1019.6
20260507131019 48 226 0.0 0.0 0.00 0.00 0.00 99 1019.6
20260507130516 48 214 0.0 1.0 0.00 0.00 0.00 99 1019.3
20260507130014 48 246 0.0 0.0 0.00 0.00 0.00 99 1019.3
20260507125512 48 246 0.0 0.0 0.00 0.00 0.00 99 1019.6
20260507125011 48 246 0.0 0.0 0.00 0.00 0.00 99 1019.3
20260507124506 48 246 0.0 0.0 0.00 0.00 0.00 99 1019.6
20260507124004 48 272 0.0 0.0 0.00 0.00 0.00 99 1019.6
20260507123501 48 223 0.0 0.0 0.00 0.00 0.00 99 1019.3
20260507122957 48 255 0.0 0.0 0.00 0.00 0.00 99 1019.9
20260507122453 47 249 0.0 0.0 0.00 0.00 0.00 99 1019.6
20260507121949 48 250 0.0 0.0 0.00 0.00 0.00 99 1019.6
20260507121444 48 189 1.0 1.0 0.00 0.00 0.00 99 1019.6
20260507120941 48 236 0.0 0.0 0.00 0.00 0.00 99 1019.6
20260507120438 48 214 1.0 1.0 0.00 0.00 0.00 99 1019.9
20260507115934 48 194 1.0 2.0 0.00 0.00 0.00 99 1019.9
20260507115430 48 140 0.0 1.0 0.00 0.00 0.00 99 1019.6
20260507114926 48 206 0.0 1.0 0.00 0.00 0.00 99 1019.9
20260507114423 48 190 1.0 1.0 0.00 0.00 0.00 99 1019.9
20260507113920 48 231 0.0 0.0 0.00 0.00 0.00 99 1019.9
20260507113417 48 237 1.0 1.0 0.00 0.00 0.00 99 1019.9
20260507112914 49 134 2.0 2.0 0.00 0.00 0.00 99 1019.9
20260507112412 49 224 1.0 1.0 0.00 0.00 0.00 99 1019.9
20260507111909 49 238 0.0 0.0 0.00 0.00 0.00 99 1019.6
20260507111406 49 203 0.0 1.0 0.00 0.00 0.00 99 1019.9
20260507110902 49 224 0.0 0.0 0.00 0.00 0.00 99 1019.6
20260507110358 49 239 0.0 0.0 0.00 0.00 0.00 99 1019.9
20260507105855 49 237 0.0 0.0 0.00 0.00 0.00 99 1019.9
20260507105352 49 189 1.0 1.0 0.00 0.00 0.00 99 1019.9
20260507104849 49 204 1.0 2.0 0.00 0.00 0.00 99 1019.9
20260507104345 49 219 0.0 0.0 0.00 0.00 0.00 99 1019.9
20260507103841 49 204 1.0 1.0 0.00 0.00 0.00 99 1019.9
20260507103338 49 225 1.0 1.0 0.00 0.00 0.00 99 1019.9
20260507102834 50 179 2.0 2.0 0.00 0.00 0.00 99 1020.4
20260507102331 50 217 0.0 1.0 0.00 0.00 0.00 99 1019.9
20260507101828 50 197 1.0 1.0 0.00 0.00 0.00 99 1019.9
20260507101327 50 203 1.0 1.0 0.00 0.00 0.00 99 1019.9
20260507100825 50 123 0.0 0.0 0.00 0.00 0.00 99 1020.4
20260507100323 50 210 0.0 1.0 0.00 0.00 0.00 99 1019.9
20260507095821 50 220 0.0 0.0 0.00 0.00 0.00 99 1019.9
20260507095317 50 220 0.0 0.0 0.00 0.00 0.00 99 1019.9
20260507094814 50 219 0.0 0.0 0.00 0.00 0.00 99 1019.9
20260507094311 50 220 0.0 0.0 0.00 0.00 0.00 99 1019.9
20260507093808 51 205 1.0 1.0 0.00 0.00 0.00 99 1019.9
20260507093306 50 246 0.0 0.0 0.00 0.00 0.00 99 1019.9
20260507092804 50 210 1.0 1.0 0.00 0.00 0.00 99 1019.9
20260507092300 50 254 0.0 0.0 0.00 0.00 0.00 99 1019.9
20260507091756 51 244 0.0 0.0 0.00 0.00 0.00 99 1020.4
20260507091253 51 236 0.0 0.0 0.00 0.00 0.00 99 1019.9
20260507090753 51 200 0.0 0.0 0.00 0.00 0.00 99 1019.9
20260507090250 51 200 0.0 0.0 0.00 0.00 0.00 99 1019.9
20260507085747 51 200 0.0 0.0 0.00 0.00 0.00 99 1019.9
20260507085244 51 200 0.0 0.0 0.00 0.00 0.00 99 1019.9
20260507084742 50 200 0.0 0.0 0.00 0.00 0.00 99 1019.9
20260507084238 50 200 0.0 0.0 0.00 0.00 0.00 99 1020.4
20260507083735 50 200 0.0 0.0 0.00 0.00 0.00 99 1019.9
20260507083232 50 201 1.0 1.0 0.00 0.00 0.00 99 1019.9
20260507082728 51 198 1.0 1.0 0.00 0.00 0.00 99 1020.4
20260507082224 51 221 0.0 0.0 0.00 0.00 0.00 99 1020.4
20260507081721 51 224 0.0 0.0 0.00 0.00 0.00 99 1019.9
20260507081217 51 224 0.0 0.0 0.00 0.00 0.00 99 1020.4
20260507080714 51 224 0.0 0.0 0.00 0.00 0.00 99 1020.4
20260507080210 51 224 0.0 0.0 0.00 0.00 0.00 99 1020.4
20260507075705 51 224 0.0 1.0 0.00 0.00 0.00 99 1019.9
20260507075202 51 212 0.0 0.0 0.00 0.00 0.00 99 1020.4
20260507074658 51 220 0.0 0.0 0.00 0.00 0.00 99 1019.9
20260507074157 51 203 0.0 1.0 0.00 0.00 0.00 99 1019.9
20260507073653 51 220 1.0 1.0 0.00 0.00 0.00 99 1019.9
20260507073149 51 212 0.0 0.0 0.00 0.00 0.00 99 1019.9
20260507072647 51 203 0.0 0.0 0.00 0.00 0.00 99 1019.9
20260507072144 51 214 0.0 1.0 0.00 0.00 0.00 99 1019.9
20260507071642 51 224 0.0 0.0 0.00 0.00 0.00 99 1019.9
20260507071138 51 242 0.0 0.0 0.00 0.00 0.00 99 1019.6
20260507070635 51 245 0.0 0.0 0.00 0.00 0.00 99 1019.9
20260507070132 51 220 0.0 0.0 0.00 0.00 0.00 99 1019.9
20260507065628 51 221 0.0 0.0 0.00 0.01 0.01 99 1019.9
20260507065125 52 221 0.0 0.0 0.00 0.01 0.01 99 1019.9
20260507064623 52 223 0.0 0.0 0.00 0.01 0.01 99 1019.9
20260507064121 51 212 0.0 0.0 0.00 0.01 0.01 99 1019.9
20260507063618 51 228 0.0 0.0 0.00 0.01 0.01 99 1019.9
20260507063115 52 231 0.0 0.0 0.00 0.01 0.01 99 1019.9
20260507062612 52 214 0.0 0.0 0.00 0.01 0.01 99 1019.9
20260507062110 52 205 0.0 1.0 0.00 0.01 0.01 99 1019.9
20260507061607 52 216 0.0 1.0 0.00 0.01 0.01 99 1019.6
20260507061105 52 218 0.0 0.0 0.00 0.01 0.01 99 1019.9
20260507060603 52 215 1.0 1.0 0.00 0.01 0.01 99 1019.9